This is the latest recevied weather packets stored in our database for station/object K7AEL. If no packets are shown the sender has not sent any weather packets the latest 10 day(s).
| Time | Temp. | Humidity | Pressure | Rain* | Wind** | Luminosity | Snow |
|---|---|---|---|---|---|---|---|
| 1777989529 | 15.56° C | 93% | 1013.5 hPa | 0 mm | - | 31 W/m² | - |
| 1777989226 | 15.56° C | 93% | 1013.4 hPa | 0 mm | - | 50 W/m² | - |
| 1777988922 | 15.56° C | 93% | 1013.3 hPa | 0 mm | - | 40 W/m² | - |
| 1777988619 | 15.56° C | 93% | 1013.3 hPa | 0 mm | - | 27 W/m² | - |
| 1777988315 | 15.56° C | 93% | 1013.3 hPa | 0 mm | - | 32 W/m² | - |
| 1777988012 | 15° C | 93% | 1013.2 hPa | 0 mm | - | 30 W/m² | - |
| 1777987708 | 15° C | 93% | 1012.9 hPa | 0 mm | - | 24 W/m² | - |
| 1777987405 | 15° C | 93% | 1013.2 hPa | 0 mm | - | 23 W/m² | - |
| 1777987102 | 15° C | 93% | 1013 hPa | 0 mm | - | 29 W/m² | - |
| 1777986800 | 15° C | 93% | 1013 hPa | 0 mm | - | 21 W/m² | - |
| 1777986497 | 15° C | 93% | 1012.9 hPa | 0 mm | - | 17 W/m² | - |
| 1777986195 | 15° C | 93% | 1012.9 hPa | 0 mm | - | 12 W/m² | - |
| 1777985892 | 15° C | 93% | 1012.8 hPa | 0 mm | - | 8 W/m² | - |
| 1777985590 | 14.44° C | 93% | 1012.9 hPa | 0 mm | - | 6 W/m² | - |
| 1777985286 | 14.44° C | 93% | 1012.7 hPa | 0 mm | - | 4 W/m² | - |
| 1777984983 | 14.44° C | 93% | 1012.6 hPa | 0 mm | - | 3 W/m² | - |
| 1777984679 | 14.44° C | 93% | 1012.6 hPa | 0 mm | - | 2 W/m² | - |
| 1777984375 | 14.44° C | 93% | 1012.4 hPa | 0 mm | - | 1 W/m² | - |
| 1777984071 | 15° C | 92% | 1012.5 hPa | 0 mm | - | 1 W/m² | - |
| 1777983769 | 15° C | 92% | 1012.5 hPa | 0 mm | - | 0 W/m² | - |
| 1777983466 | 15° C | 92% | 1012.6 hPa | 1.78 mm | - | 0 W/m² | - |
| 1777983162 | 15° C | 92% | 1012.7 hPa | 1.78 mm | - | 0 W/m² | - |
| 1777982858 | 15° C | 92% | 1012.8 hPa | 0 mm | - | 0 W/m² | - |
| 1777982555 | 15° C | 92% | 1012.5 hPa | 0 mm | - | 0 W/m² | - |
| 1777982254 | 14.44° C | 92% | 1012.6 hPa | 0 mm | - | 0 W/m² | - |
* Rain latest hour (hover to see other rain measurements)
** Current wind speed in m/s (hover to see current wind gust speed)